Location: Caltech
(34.1382°N, 118.1253°W)
Time: 08:53:54
(UTC-07:00)

Iridium 62 - Visible Passes

Search period start: 04 August 2015 00:00
Search period end: 14 August 2015 00:00
Orbit: 776 x 779 km, 86.4° (Epoch: 04 August)

Date Brightness Start Highest point End Pass type
(mag) Time Alt. Az. Time Alt. Az. Time Alt. Az.
04 Aug 7.9 01:15:34 10° NNE 01:17:35 22° NNE 01:17:35 22° NNE visible
04 Aug 8.3 02:57:37 10° NW 02:58:03 11° NW 02:58:03 11° NW visible
05 Aug 8.3 00:42:44 10° NNE 00:43:59 15° NE 00:43:59 15° NE visible
05 Aug 8.0 02:22:58 10° NNW 02:24:27 18° NW 02:24:27 18° NW visible
06 Aug 7.9 01:49:01 10° N 01:50:51 22° NNW 01:50:51 22° NNW visible
07 Aug 8.0 01:15:29 10° N 01:17:16 22° N 01:17:16 22° N visible
08 Aug 8.3 00:42:19 10° NNE 00:43:41 17° NNE 00:43:41 17° NNE visible
08 Aug 8.4 02:23:37 10° NW 02:24:08 12° NW 02:24:08 12° NW visible
09 Aug 8.5 00:09:48 10° NE 00:10:06 11° NE 00:10:06 11° NE visible
09 Aug 8.2 01:49:18 10° NNW 01:50:34 17° NNW 01:50:34 17° NNW visible
10 Aug 8.2 01:15:32 10° N 01:16:59 19° N 01:16:59 19° N visible
11 Aug 8.3 00:42:08 10° N 00:43:26 18° NNE 00:43:26 18° NNE visible
12 Aug 8.5 00:09:11 10° NNE 00:09:52 13° NNE 00:09:52 13° NNE visible
12 Aug 8.5 01:49:46 10° NNW 01:50:20 13° NNW 01:50:20 13° NNW visible
13 Aug 8.4 01:15:43 10° NNW 01:16:46 16° NNW 01:16:46 16° NNW visible
